RH
15 13 12 11 12 13 14 13 11 9 8 10 10 10 8 7 6 7 12 17 19 22 24 27 41 59 64 79 78 80 78 80 75 64 73 68 64 61 58 50 59 63 52 52 57
14 12 11 11 12 12 12 13 12 10 9 8 10 10 10 8 7 6 8 13 18 22 22 35 53 63 65 75 81 82 83 79 74 74 70 67 65 63 52 50 62 63 59 58 54
13 11 11 12 12 12 11 11 11 11 9 8 8 10 11 10 7 9 8 9 15 22 21 39 53 66 67 78 80 80 85 85 80 81 76 68 66 68 52 49 59 61 64 61 59
13 11 11 13 12 11 10 10 10 10 10 9 8 9 11 11 10 11 9 7 14 21 23 41 57 59 72 72 79 85 87 87 85 83 82 79 73 72 56 47 57 61 59 60 65
14 12 12 13 12 13 13 13 11 9 10 9 8 8 10 12 13 12 10 8 10 19 24 49 53 50 55 63 80 84 86 84 86 84 83 79 76 73 56 48 51 60 60 63 60
15 13 12 14 13 16 15 14 13 11 8 9 8 8 10 12 14 15 10 9 8 16 20 51 49 43 50 59 68 83 80 83 85 89 88 84 81 77 59 50 49 60 66 64 57
15 14 12 14 16 17 17 16 15 13 9 8 8 8 10 12 15 15 12 9 8 14 19 41 50 46 45 68 70 72 82 79 83 89 93 91 90 81 66 65 55 57 64 64 60
15 14 13 13 16 19 19 17 16 16 14 12 11 10 10 13 15 16 15 13 11 12 18 23 49 39 49 58 69 72 81 82 91 88 96 91 92 88 80 79 67 58 59 68 63
17 15 14 13 16 19 17 16 17 16 16 15 12 12 13 13 14 15 15 13 10 12 17 20 44 43 48 55 68 67 73 79 91 98 95 91 94 94 95 84 74 65 58 67 67
18 15 14 13 17 18 16 14 17 16 17 17 16 17 16 16 15 15 16 13 10 11 15 21 40 45 33 46 58 61 63 74 84 87 87 90 93 92 95 90 83 69 62 65 71
18 17 15 13 17 16 16 17 19 18 15 18 19 20 19 19 17 16 16 15 12 11 13 22 34 40 35 37 51 59 64 66 76 80 80 87 88 90 95 93 87 74 64 64 71
17 17 16 14 15 16 17 20 21 20 20 18 18 19 21 22 22 18 17 18 16 16 16 19 30 39 40 37 43 47 58 66 74 77 75 81 84 87 93 95 89 83 72 61 67
16 17 17 15 14 16 19 22 22 23 24 23 21 22 23 22 23 22 21 21 19 19 18 19 26 37 42 39 41 43 48 63 63 73 74 81 88 92 96 90 92 86 73 67 63
16 17 16 15 16 18 23 24 25 26 24 23 23 23 23 24 24 25 24 24 21 20 20 21 23 30 39 42 43 46 58 64 69 77 83 81 84 84 93 95 90 85 80 70 63
16 17 16 15 17 22 26 27 27 28 29 26 23 23 25 26 26 27 26 25 23 21 20 22 21 24 29 40 46 57 59 68 71 79 80 84 83 80 85 97 90 84 81 76 60
15 17 15 13 19 25 26 30 29 30 33 29 24 26 29 30 30 26 25 26 27 23 20 20 20 20 24 30 46 56 56 61 68 75 78 71 77 70 77 72 77 82 81 72 58
14 15 12 12 20 25 27 31 32 32 31 29 28 30 34 36 34 26 25 23 23 22 21 19 20 19 24 36 51 52 45 57 67 73 69 71 75 62 65 67 70 76 79 75 58
13 13 11 17 23 27 30 33 34 33 33 32 31 32 34 38 39 35 28 27 24 22 23 21 19 18 22 28 37 43 45 53 62 66 63 69 71 61 66 70 70 76 78 74 66
12 13 13 18 24 28 31 33 31 31 32 31 32 35 38 40 40 40 33 28 25 22 24 25 25 19 23 31 33 43 45 52 58 58 58 57 60 65 71 70 72 74 77 78 74
14 13 19 23 28 29 31 33 32 31 30 31 34 39 44 44 43 42 37 30 28 25 25 29 33 29 33 36 40 44 48 55 59 63 62 54 68 70 75 77 78 74 74 81 77
15 13 20 27 30 31 32 33 31 31 32 30 33 41 43 44 45 44 40 34 31 29 29 32 36 38 45 42 43 46 48 52 53 50 56 60 73 77 78 77 77 76 75 75 78
16 15 23 30 31 34 33 33 33 32 31 31 33 42 47 49 46 45 46 40 36 31 37 38 38 42 47 46 48 52 54 53 48 53 55 53 61 82 77 78 77 75 77 76 75
21 21 27 31 32 33 32 33 32 32 30 33 31 31 43 48 47 46 47 41 39 38 38 43 44 46 48 47 51 52 51 45 42 44 55 47 51 77 75 72 74 70 70 69 68
28 28 30 33 34 34 35 35 32 32 30 32 30 31 34 43 49 49 44 42 41 41 42 43 47 48 44 47 51 53 57 45 42 44 43 42 60 63 66 71 68 71 71 70 68
32 32 34 36 38 39 41 39 36 34 34 29 24 31 32 34 42 44 45 45 44 42 46 46 51 54 56 52 57 65 62 51 42 46 44 48 57 61 63 68 70 70 70 70 73
33 43 37 41 44 46 45 41 39 37 37 34 33 32 34 26 25 30 39 44 46 47 48 48 50 57 58 53 58 62 56 56 57 54 57 59 63 63 66 68 70 70 72 73 73
29 39 46 38 43 47 45 39 36 37 37 37 35 38 36 35 26 22 27 38 46 50 52 52 50 55 57 56 53 64 60 55 58 61 58 58 62 70 69 68 66 65 64 65 64